Location: Bucquoy
(50.1391°N, 2.7097°E)
Time: 09:05:44
(UTC+00:00)

Cosmos 2219 - Pass Details

Date: 06 May 2021
Orbit: 832 x 861 km, 71.1° (Epoch: 21 June)

Event Time Altitude Azimuth Distance (km) Brightness Sun altitude
Rises 02:44:48 0° 330° (NNW) 3,414 6.6 -12.6°
Reaches altitude 10° 02:47:15 10° 330° (NNW) 2,480 5.8 -12.3°
Maximum altitude 02:52:58 87° 241° (WSW) 860 3.2 -11.6°
Drops below altitude 10° 02:58:41 10° 155° (SSE) 2,483 5.5 -11.0°
Sets 03:01:08 0° 155° (SSE) 3,419 6.2 -10.7°
